Location: Arroyo de Valdeoliva
(40.1604°N, 4.9878°W)
Time: 14:23:36
(UTC+00:00)

BlueWalker 3 - Pass Details

Date: 25 February 2026
Orbit: 451 x 458 km, 53.2° (Epoch: 6 March)

Event Time Altitude Azimuth Distance (km) Brightness Sun altitude
Exits shadow 06:13:33 11° 247° (WSW) 1,561 3.9 -9.5°
Maximum altitude 06:16:59 52° 324° (NW) 577 2.0 -8.9°
Drops below altitude 10° 06:20:30 10° 42° (NE) 1,598 5.0 -8.2°
Sets 06:22:41 0° 47° (NE) 2,472 6.1 -7.8°
